| time (UTC) | temp C | wind direction | speed KPH | gust KPH | rain 1hr cm | rain 24hr cm | rain mn cm | humidity % | barometer mb |
| 20260506202000 | 20 | 142 | 3.2 | 12.9 | 0.00 | 0.38 | 0.38 | 81 | 1007.8 |
| 20260506201459 | 20 | 154 | 1.6 | 8.0 | 0.00 | 0.38 | 0.38 | 81 | 1007.7 |
| 20260506201000 | 20 | 249 | 1.6 | 6.4 | 0.00 | 0.38 | 0.38 | 84 | 1007.9 |
| 20260506200453 | 20 | 280 | 1.6 | 6.4 | 0.00 | 0.38 | 0.38 | 81 | 1007.8 |
| 20260506200440 | 20 | 297 | 3.2 | 16.1 | 0.00 | 0.38 | 0.38 | 82 | 1007.8 |
| 20260506195442 | 20 | 118 | 3.2 | 16.1 | 0.00 | 0.38 | 0.38 | 83 | 1007.9 |
| 20260506194936 | 20 | 234 | 3.2 | 8.0 | 0.00 | 0.38 | 0.38 | 81 | 1007.8 |
| 20260506194430 | 19 | 121 | 3.2 | 9.7 | 0.00 | 0.38 | 0.38 | 83 | 1007.8 |
| 20260506193922 | 19 | 270 | 3.2 | 14.5 | 0.00 | 0.38 | 0.38 | 83 | 1008.0 |
| 20260506193417 | 19 | 128 | 3.2 | 14.5 | 0.00 | 0.38 | 0.38 | 84 | 1008.0 |
| 20260506192910 | 19 | 35 | 3.2 | 14.5 | 0.00 | 0.38 | 0.38 | 84 | 1008.0 |
| 20260506192404 | 18 | 331 | 4.8 | 16.1 | 0.00 | 0.38 | 0.38 | 85 | 1008.0 |
| 20260506191858 | 18 | 294 | 4.8 | 16.1 | 0.00 | 0.38 | 0.38 | 84 | 1008.2 |
| 20260506191352 | 18 | 278 | 3.2 | 11.3 | 0.00 | 0.38 | 0.38 | 84 | 1008.1 |
| 20260506191111 | 18 | 237 | 3.2 | 16.1 | 0.00 | 0.38 | 0.38 | 84 | 1008.5 |
| 20260506190339 | 18 | 250 | 3.2 | 16.1 | 0.00 | 0.38 | 0.38 | 85 | 1008.5 |
| 20260506185550 | 18 | 225 | 3.2 | 14.5 | 0.00 | 0.38 | 0.38 | 85 | 1008.6 |
| 20260506184822 | 18 | 271 | 3.2 | 11.3 | 0.00 | 0.38 | 0.38 | 84 | 1008.7 |
| 20260506184316 | 18 | 230 | 3.2 | 6.4 | 0.00 | 0.38 | 0.38 | 85 | 1008.8 |
| 20260506183811 | 18 | 15 | 3.2 | 11.3 | 0.00 | 0.38 | 0.38 | 86 | 1008.7 |
| 20260506183305 | 18 | 260 | 3.2 | 11.3 | 0.00 | 0.38 | 0.38 | 85 | 1009.0 |
| 20260506182759 | 18 | 164 | 3.2 | 11.3 | 0.00 | 0.38 | 0.38 | 85 | 1008.6 |
| 20260506182252 | 18 | 194 | 3.2 | 11.3 | 0.00 | 0.38 | 0.38 | 85 | 1008.8 |
| 20260506181746 | 18 | 127 | 1.6 | 6.4 | 0.00 | 0.38 | 0.38 | 86 | 1008.6 |
| 20260506181241 | 18 | 153 | 1.6 | 11.3 | 0.00 | 0.38 | 0.38 | 85 | 1008.7 |
| 20260506180735 | 18 | 209 | 1.6 | 11.3 | 0.00 | 0.38 | 0.38 | 85 | 1008.8 |
| 20260506180715 | 18 | 140 | 3.2 | 8.0 | 0.00 | 0.38 | 0.38 | 85 | 1008.7 |
| 20260506175722 | 18 | 140 | 3.2 | 14.5 | 0.00 | 0.38 | 0.38 | 87 | 1008.7 |
| 20260506175645 | 18 | 267 | 3.2 | 14.5 | 0.00 | 0.38 | 0.38 | 85 | 1009.0 |
| 20260506175306 | 18 | 148 | 3.2 | 14.5 | 0.00 | 0.38 | 0.38 | 86 | 1008.9 |
| 20260506174425 | 18 | 165 | 3.2 | 9.7 | 0.00 | 0.38 | 0.38 | 86 | 1008.9 |
| 20260506173658 | 18 | 115 | 3.2 | 14.5 | 0.00 | 0.38 | 0.38 | 86 | 1008.9 |
| 20260506173152 | 18 | 178 | 3.2 | 14.5 | 0.00 | 0.38 | 0.38 | 86 | 1009.0 |
| 20260506172646 | 17 | 198 | 3.2 | 14.5 | 0.00 | 0.38 | 0.38 | 86 | 1009.2 |
| 20260506172143 | 17 | 251 | 3.2 | 14.5 | 0.00 | 0.38 | 0.38 | 87 | 1009.3 |
| 20260506171904 | 17 | 273 | 3.2 | 17.7 | 0.00 | 0.38 | 0.38 | 87 | 1009.2 |
| 20260506171406 | 17 | 214 | 4.8 | 17.7 | 0.00 | 0.38 | 0.38 | 86 | 1009.2 |
| 20260506170643 | 17 | 241 | 4.8 | 17.7 | 0.00 | 0.38 | 0.38 | 86 | 1009.3 |
| 20260506170143 | 17 | 162 | 3.2 | 17.7 | 0.00 | 0.38 | 0.38 | 87 | 1009.4 |
| 20260506165642 | 17 | 86 | 4.8 | 19.3 | 0.00 | 0.38 | 0.38 | 88 | 1009.3 |
| 20260506165143 | 17 | 158 | 4.8 | 19.3 | 0.00 | 0.38 | 0.38 | 86 | 1009.4 |
| 20260506164643 | 17 | 234 | 4.8 | 17.7 | 0.00 | 0.38 | 0.38 | 87 | 1009.2 |
| 20260506164143 | 17 | 154 | 4.8 | 19.3 | 0.00 | 0.38 | 0.38 | 87 | 1009.4 |
| 20260506163643 | 17 | 143 | 4.8 | 24.1 | 0.00 | 0.38 | 0.38 | 87 | 1009.3 |
| 20260506163142 | 17 | 240 | 4.8 | 24.1 | 0.00 | 0.38 | 0.38 | 89 | 1009.3 |
| 20260506162643 | 17 | 185 | 4.8 | 19.3 | 0.00 | 0.38 | 0.38 | 89 | 1009.4 |
| 20260506162143 | 17 | 198 | 4.8 | 19.3 | 0.00 | 0.38 | 0.38 | 90 | 1009.4 |
| 20260506161646 | 17 | 89 | 4.8 | 14.5 | 0.00 | 0.38 | 0.38 | 92 | 1009.6 |
| 20260506161144 | 16 | 181 | 4.8 | 17.7 | 0.00 | 0.38 | 0.38 | 91 | 1009.5 |
| 20260506160909 | 16 | 221 | 4.8 | 17.7 | 0.00 | 0.38 | 0.38 | 91 | 1009.5 |
| 20260506160145 | 16 | 185 | 4.8 | 20.9 | 0.00 | 0.38 | 0.38 | 91 | 1009.6 |
| 20260506155640 | 16 | 240 | 3.2 | 20.9 | 0.00 | 0.38 | 0.38 | 92 | 1009.6 |
| 20260506155133 | 16 | 173 | 3.2 | 17.7 | 0.03 | 0.38 | 0.38 | 92 | 1009.4 |
| 20260506154627 | 16 | 254 | 4.8 | 12.9 | 0.03 | 0.38 | 0.38 | 92 | 1009.6 |
| 20260506154123 | 16 | 233 | 4.8 | 12.9 | 0.03 | 0.38 | 0.38 | 92 | 1009.6 |
| 20260506153623 | 16 | 242 | 3.2 | 12.9 | 0.03 | 0.38 | 0.38 | 92 | 1009.7 |
| 20260506153122 | 16 | 220 | 3.2 | 12.9 | 0.08 | 0.38 | 0.38 | 93 | 1009.6 |
| 20260506152621 | 16 | 101 | 3.2 | 16.1 | 0.10 | 0.38 | 0.38 | 93 | 1009.6 |
| 20260506152120 | 16 | 188 | 4.8 | 16.1 | 0.13 | 0.38 | 0.38 | 93 | 1009.6 |
| 20260506151836 | 16 | 294 | 3.2 | 16.1 | 0.18 | 0.38 | 0.38 | 93 | 1009.7 |
| 20260506151336 | 16 | 136 | 3.2 | 14.5 | 0.20 | 0.38 | 0.38 | 94 | 1009.6 |
| 20260506150836 | 16 | 137 | 4.8 | 19.3 | 0.23 | 0.38 | 0.38 | 94 | 1009.5 |
| 20260506150113 | 16 | 209 | 4.8 | 19.3 | 0.23 | 0.38 | 0.38 | 94 | 1009.7 |
| 20260506145843 | 15 | 230 | 3.2 | 9.7 | 0.23 | 0.38 | 0.38 | 93 | 1009.9 |
| 20260506145114 | 15 | 191 | 1.6 | 9.7 | 0.20 | 0.36 | 0.36 | 93 | 1009.9 |
| 20260506145031 | 15 | 97 | 3.2 | 11.3 | 0.20 | 0.36 | 0.36 | 93 | 1010.0 |
| 20260506144701 | 15 | 294 | 1.6 | 11.3 | 0.20 | 0.36 | 0.36 | 93 | 1009.9 |
| 20260506143610 | 15 | 139 | 3.2 | 11.3 | 0.20 | 0.36 | 0.36 | 92 | 1010.1 |
| 20260506143107 | 16 | 229 | 3.2 | 11.3 | 0.18 | 0.30 | 0.30 | 91 | 1010.1 |
| 20260506142608 | 16 | 132 | 3.2 | 9.7 | 0.18 | 0.28 | 0.28 | 91 | 1010.2 |
| 20260506142105 | 16 | 200 | 3.2 | 9.7 | 0.15 | 0.25 | 0.25 | 91 | 1010.3 |
| 20260506141606 | 16 | 215 | 1.6 | 8.0 | 0.13 | 0.20 | 0.20 | 91 | 1010.3 |
| 20260506141100 | 16 | 110 | 1.6 | 8.0 | 0.10 | 0.15 | 0.15 | 91 | 1010.2 |
| 20260506140554 | 16 | 206 | 1.6 | 11.3 | 0.13 | 0.15 | 0.15 | 91 | 1010.1 |
| 20260506140048 | 16 | 291 | 1.6 | 11.3 | 0.13 | 0.15 | 0.15 | 90 | 1010.1 |
| 20260506135816 | 16 | 120 | 0.0 | 6.4 | 0.13 | 0.15 | 0.15 | 89 | 1010.1 |
| 20260506135048 | 16 | 156 | 0.0 | 3.2 | 0.15 | 0.15 | 0.15 | 89 | 1010.0 |
| 20260506134545 | 16 | 125 | 1.6 | 4.8 | 0.15 | 0.15 | 0.15 | 88 | 1010.0 |
| 20260506134044 | 16 | 153 | 1.6 | 9.7 | 0.15 | 0.15 | 0.15 | 88 | 1010.1 |
| 20260506133546 | 16 | 152 | 1.6 | 9.7 | 0.15 | 0.15 | 0.15 | 87 | 1010.2 |
| 20260506133045 | 16 | 78 | 0.0 | 4.8 | 0.13 | 0.13 | 0.13 | 87 | 1010.3 |
| 20260506132545 | 16 | 109 | 0.0 | 4.8 | 0.10 | 0.10 | 0.10 | 87 | 1010.2 |
| 20260506132044 | 16 | 173 | 1.6 | 4.8 | 0.10 | 0.10 | 0.10 | 86 | 1010.1 |
| 20260506131545 | 16 | 109 | 1.6 | 11.3 | 0.08 | 0.08 | 0.08 | 86 | 1010.2 |
| 20260506131046 | 16 | 131 | 1.6 | 11.3 | 0.05 | 0.05 | 0.05 | 85 | 1010.4 |
| 20260506130540 | 16 | 195 | 1.6 | 6.4 | 0.03 | 0.03 | 0.03 | 85 | 1010.6 |
| 20260506130301 | 16 | 257 | 1.6 | 9.7 | 0.03 | 0.03 | 0.03 | 85 | 1010.4 |
| 20260506125540 | 16 | 221 | 1.6 | 9.7 | 0.03 | 0.03 | 0.03 | 84 | 1010.2 |
| 20260506125041 | 16 | 123 | 1.6 | 9.7 | 0.00 | 0.00 | 0.00 | 83 | 1010.3 |
| 20260506124542 | 17 | 221 | 1.6 | 9.7 | 0.00 | 0.00 | 0.00 | 83 | 1010.3 |
| 20260506124042 | 17 | 219 | 1.6 | 6.4 | 0.00 | 0.00 | 0.00 | 83 | 1010.2 |
| 20260506123802 | 17 | 137 | 1.6 | 6.4 | 0.00 | 0.00 | 0.00 | 83 | 1010.1 |
| 20260506123040 | 17 | 53 | 1.6 | 6.4 | 0.00 | 0.00 | 0.00 | 82 | 1010.0 |
| 20260506122543 | 17 | 209 | 1.6 | 6.4 | 0.00 | 0.00 | 0.00 | 82 | 1009.9 |
| 20260506122307 | 17 | 101 | 1.6 | 4.8 | 0.00 | 0.00 | 0.00 | 82 | 1010.0 |
| 20260506121541 | 17 | 202 | 1.6 | 4.8 | 0.00 | 0.00 | 0.00 | 81 | 1010.0 |
| 20260506121531 | 17 | 87 | 1.6 | 6.4 | 0.00 | 0.00 | 0.00 | 81 | 1010.0 |
| 20260506120541 | 17 | 222 | 1.6 | 6.4 | 0.00 | 0.00 | 0.00 | 80 | 1009.8 |
| 20260506120527 | 17 | 113 | 1.6 | 8.0 | 0.00 | 0.00 | 0.00 | 80 | 1009.9 |
| 20260506115810 | 17 | 130 | 1.6 | 8.0 | 0.00 | 0.00 | 0.00 | 79 | 1010.1 |
| 20260506115041 | 17 | 126 | 1.6 | 12.9 | 0.00 | 0.00 | 0.00 | 78 | 1010.2 |
| 20260506114540 | 17 | 132 | 1.6 | 12.9 | 0.00 | 0.00 | 0.00 | 77 | 1010.3 |
| 20260506114043 | 17 | 190 | 3.2 | 11.3 | 0.00 | 0.00 | 0.00 | 76 | 1010.3 |
| 20260506113535 | 18 | 277 | 3.2 | 11.3 | 0.00 | 0.00 | 0.00 | 76 | 1010.3 |
| 20260506113030 | 18 | 188 | 1.6 | 9.7 | 0.00 | 0.00 | 0.00 | 76 | 1010.2 |
| 20260506112523 | 18 | 163 | 3.2 | 11.3 | 0.00 | 0.00 | 0.00 | 75 | 1010.1 |
| 20260506112017 | 18 | 269 | 4.8 | 14.5 | 0.00 | 0.00 | 0.00 | 74 | 1010.0 |
| 20260506111511 | 18 | 74 | 3.2 | 14.5 | 0.00 | 0.00 | 0.00 | 73 | 1009.9 |
| 20260506111010 | 18 | 281 | 3.2 | 16.1 | 0.00 | 0.00 | 0.00 | 74 | 1009.8 |
| 20260506110734 | 18 | 81 | 4.8 | 16.1 | 0.00 | 0.00 | 0.00 | 73 | 1009.7 |
| 20260506110230 | 18 | 298 | 3.2 | 11.3 | 0.00 | 0.00 | 0.00 | 73 | 1009.6 |
| 20260506105506 | 18 | 232 | 3.2 | 12.9 | 0.00 | 0.00 | 0.00 | 73 | 1009.6 |
| 20260506105005 | 18 | 121 | 3.2 | 16.1 | 0.00 | 0.00 | 0.00 | 73 | 1009.6 |
| 20260506104504 | 18 | 63 | 3.2 | 16.1 | 0.00 | 0.00 | 0.00 | 73 | 1009.6 |
| 20260506104003 | 18 | 232 | 3.2 | 16.1 | 0.00 | 0.00 | 0.00 | 73 | 1009.6 |
| 20260506103502 | 18 | 143 | 3.2 | 19.3 | 0.00 | 0.00 | 0.00 | 73 | 1009.6 |
| 20260506103003 | 18 | 143 | 3.2 | 19.3 | 0.00 | 0.00 | 0.00 | 73 | 1009.5 |
| 20260506102505 | 18 | 207 | 4.8 | 19.3 | 0.00 | 0.00 | 0.00 | 73 | 1009.5 |
| 20260506102003 | 18 | 257 | 3.2 | 19.3 | 0.00 | 0.00 | 0.00 | 73 | 1009.5 |
| 20260506101502 | 18 | 132 | 3.2 | 14.5 | 0.00 | 0.00 | 0.00 | 72 | 1009.5 |
| 20260506101003 | 18 | 146 | 3.2 | 14.5 | 0.00 | 0.00 | 0.00 | 72 | 1009.5 |
| 20260506100500 | 18 | 223 | 3.2 | 16.1 | 0.00 | 0.00 | 0.00 | 72 | 1009.5 |
| 20260506100000 | 18 | 250 | 3.2 | 16.1 | 0.00 | 0.00 | 0.00 | 72 | 1009.6 |
| 20260506095502 | 18 | 200 | 3.2 | 14.5 | 0.00 | 0.00 | 0.00 | 72 | 1009.6 |
| 20260506095002 | 18 | 156 | 3.2 | 8.0 | 0.00 | 0.00 | 0.00 | 72 | 1009.5 |
| 20260506094455 | 18 | 115 | 3.2 | 11.3 | 0.00 | 0.00 | 0.00 | 72 | 1009.4 |
| 20260506094220 | 18 | 162 | 3.2 | 11.3 | 0.00 | 0.00 | 0.00 | 71 | 1009.5 |
| 20260506093443 | 18 | 179 | 3.2 | 8.0 | 0.00 | 0.00 | 0.00 | 71 | 1009.5 |
| 20260506092937 | 18 | 202 | 3.2 | 8.0 | 0.00 | 0.00 | 0.00 | 71 | 1009.6 |
| 20260506092431 | 18 | 175 | 3.2 | 14.5 | 0.00 | 0.00 | 0.00 | 71 | 1009.4 |
| 20260506091925 | 18 | 131 | 3.2 | 16.1 | 0.00 | 0.00 | 0.00 | 71 | 1009.4 |
| 20260506091419 | 18 | 115 | 3.2 | 16.1 | 0.00 | 0.00 | 0.00 | 70 | 1009.5 |
| 20260506090913 | 18 | 191 | 3.2 | 11.3 | 0.00 | 0.00 | 0.00 | 70 | 1009.5 |
| 20260506090406 | 18 | 262 | 3.2 | 11.3 | 0.00 | 0.00 | 0.00 | 70 | 1009.7 |
| 20260506085901 | 18 | 182 | 3.2 | 16.1 | 0.00 | 0.00 | 0.00 | 70 | 1009.7 |
| 20260506085619 | 18 | 288 | 3.2 | 16.1 | 0.00 | 0.00 | 0.00 | 70 | 1009.7 |
| 20260506085115 | 18 | 110 | 3.2 | 12.9 | 0.00 | 0.00 | 0.00 | 70 | 1009.8 |
| 20260506084344 | 18 | 128 | 4.8 | 16.1 | 0.00 | 0.00 | 0.00 | 69 | 1009.7 |
| 20260506083837 | 18 | 157 | 4.8 | 16.1 | 0.00 | 0.00 | 0.00 | 69 | 1009.7 |
| 20260506083331 | 18 | 191 | 3.2 | 11.3 | 0.00 | 0.00 | 0.00 | 69 | 1009.7 |
| 20260506083046 | 18 | 193 | 3.2 | 11.3 | 0.00 | 0.00 | 0.00 | 68 | 1009.8 |
| 20260506082805 | 18 | 245 | 3.2 | 16.1 | 0.00 | 0.00 | 0.00 | 68 | 1009.7 |
| 20260506081814 | 18 | 284 | 4.8 | 16.1 | 0.00 | 0.00 | 0.00 | 68 | 1009.7 |
| 20260506081757 | 18 | 241 | 3.2 | 16.1 | 0.00 | 0.00 | 0.00 | 67 | 1009.8 |
| 20260506080801 | 19 | 256 | 3.2 | 14.5 | 0.00 | 0.00 | 0.00 | 67 | 1009.8 |
| 20260506080255 | 19 | 96 | 3.2 | 14.5 | 0.00 | 0.00 | 0.00 | 67 | 1009.7 |
| 20260506073219 | 19 | 140 | 3.2 | 12.9 | 0.00 | 0.00 | 0.00 | 65 | 1009.8 |
| 20260506072714 | 19 | 18 | 3.2 | 12.9 | 0.00 | 0.00 | 0.00 | 65 | 1009.8 |
| 20260506072208 | 19 | 225 | 3.2 | 12.9 | 0.00 | 0.00 | 0.00 | 64 | 1009.8 |
| 20260506071701 | 20 | 119 | 3.2 | 12.9 | 0.00 | 0.00 | 0.00 | 64 | 1009.8 |
| 20260506071156 | 20 | 140 | 1.6 | 11.3 | 0.00 | 0.00 | 0.00 | 64 | 1009.8 |
| 20260506070656 | 20 | 103 | 3.2 | 16.1 | 0.00 | 0.00 | 0.00 | 63 | 1009.9 |
| 20260506070157 | 20 | 226 | 3.2 | 16.1 | 0.00 | 0.00 | 0.00 | 63 | 1009.9 |
| 20260506062150 | 20 | 212 | 3.2 | 11.3 | 0.00 | 0.00 | 0.00 | 62 | 1010.4 |
| 20260506061651 | 20 | 159 | 3.2 | 14.5 | 0.00 | 0.00 | 0.00 | 62 | 1010.3 |
| 20260506061148 | 20 | 248 | 3.2 | 14.5 | 0.00 | 0.00 | 0.00 | 61 | 1010.3 |
| 20260506060645 | 20 | 143 | 3.2 | 12.9 | 0.00 | 0.00 | 0.00 | 61 | 1010.3 |
| 20260506060146 | 20 | 205 | 3.2 | 12.9 | 0.00 | 0.00 | 0.00 | 61 | 1010.3 |
| 20260506051335 | 21 | 47 | 3.2 | 14.5 | 0.00 | 0.00 | 0.00 | 58 | 1010.6 |
| 20260506050605 | 21 | 115 | 3.2 | 14.5 | 0.00 | 0.00 | 0.00 | 58 | 1010.6 |
| 20260506044548 | 21 | 138 | 3.2 | 9.7 | 0.00 | 0.00 | 0.00 | 57 | 1010.8 |
| 20260506044048 | 21 | 139 | 3.2 | 6.4 | 0.00 | 0.00 | 0.00 | 57 | 1010.7 |
| 20260506043547 | 21 | 99 | 3.2 | 9.7 | 0.00 | 0.00 | 0.00 | 57 | 1010.6 |
| 20260506043048 | 21 | 102 | 3.2 | 11.3 | 0.00 | 0.00 | 0.00 | 56 | 1010.5 |
| 20260506042549 | 21 | 267 | 1.6 | 11.3 | 0.00 | 0.00 | 0.00 | 56 | 1010.7 |
| 20260506042048 | 21 | 302 | 3.2 | 12.9 | 0.00 | 0.00 | 0.00 | 55 | 1010.6 |
| 20260506041547 | 21 | 218 | 1.6 | 12.9 | 0.00 | 0.00 | 0.00 | 55 | 1010.6 |
| 20260506041536 | 21 | 58 | 1.6 | 6.4 | 0.00 | 0.00 | 0.00 | 55 | 1010.6 |
| 20260506040549 | 21 | 162 | 3.2 | 12.9 | 0.00 | 0.00 | 0.00 | 55 | 1010.7 |
| 20260506040316 | 21 | 148 | 3.2 | 12.9 | 0.00 | 0.00 | 0.00 | 55 | 1010.7 |
| 20260506035549 | 21 | 109 | 3.2 | 11.3 | 0.00 | 0.00 | 0.00 | 54 | 1010.6 |
| 20260506035048 | 21 | 155 | 3.2 | 11.3 | 0.00 | 0.00 | 0.00 | 55 | 1010.7 |
| 20260506034548 | 21 | 164 | 3.2 | 11.3 | 0.00 | 0.00 | 0.00 | 54 | 1010.6 |
| 20260506034048 | 21 | 169 | 3.2 | 12.9 | 0.00 | 0.00 | 0.00 | 54 | 1010.6 |
| 20260506033548 | 21 | 208 | 3.2 | 16.1 | 0.00 | 0.00 | 0.00 | 54 | 1010.5 |
| 20260506033050 | 21 | 161 | 3.2 | 16.1 | 0.00 | 0.00 | 0.00 | 54 | 1010.6 |
| 20260506032544 | 21 | 154 | 3.2 | 12.9 | 0.00 | 0.00 | 0.00 | 53 | 1010.6 |
| 20260506032038 | 21 | 144 | 3.2 | 6.4 | 0.00 | 0.00 | 0.00 | 53 | 1010.6 |
| 20260506031536 | 21 | 128 | 3.2 | 9.7 | 0.00 | 0.00 | 0.00 | 53 | 1010.6 |
| 20260506031038 | 21 | 115 | 1.6 | 9.7 | 0.00 | 0.00 | 0.00 | 52 | 1010.7 |
| 20260506030537 | 21 | 112 | 3.2 | 8.0 | 0.00 | 0.00 | 0.00 | 52 | 1010.7 |
| 20260506030035 | 21 | 191 | 1.6 | 12.9 | 0.00 | 0.00 | 0.00 | 52 | 1010.7 |
| 20260506025534 | 21 | 141 | 1.6 | 12.9 | 0.00 | 0.00 | 0.00 | 52 | 1010.7 |
| 20260506025034 | 21 | 126 | 1.6 | 12.9 | 0.00 | 0.00 | 0.00 | 51 | 1010.7 |
| 20260506024800 | 21 | 213 | 1.6 | 12.9 | 0.00 | 0.00 | 0.00 | 51 | 1010.8 |
| 20260506024035 | 21 | 130 | 1.6 | 4.8 | 0.00 | 0.00 | 0.00 | 50 | 1010.8 |
| 20260506023534 | 21 | 59 | 1.6 | 4.8 | 0.00 | 0.00 | 0.00 | 50 | 1010.8 |
| 20260506023254 | 21 | 74 | 0.0 | 4.8 | 0.00 | 0.00 | 0.00 | 49 | 1010.8 |
| 20260506022533 | 21 | 120 | 1.6 | 4.8 | 0.00 | 0.00 | 0.00 | 49 | 1010.8 |
| 20260506022251 | 21 | 98 | 1.6 | 6.4 | 0.00 | 0.00 | 0.00 | 49 | 1010.9 |
| 20260506021532 | 22 | 15 | 1.6 | 6.4 | 0.00 | 0.00 | 0.00 | 49 | 1010.9 |
| 20260506021030 | 22 | 216 | 1.6 | 6.4 | 0.00 | 0.00 | 0.00 | 48 | 1011.0 |
| 20260506020530 | 22 | 308 | 1.6 | 11.3 | 0.00 | 0.00 | 0.00 | 48 | 1011.0 |
| 20260506020030 | 22 | 148 | 1.6 | 11.3 | 0.00 | 0.00 | 0.00 | 47 | 1011.0 |
| 20260506015531 | 22 | 236 | 1.6 | 9.7 | 0.00 | 0.00 | 0.00 | 46 | 1010.9 |
| 20260506015030 | 22 | 286 | 1.6 | 9.7 | 0.00 | 0.00 | 0.00 | 46 | 1010.9 |
| 20260506014524 | 22 | 111 | 1.6 | 6.4 | 0.00 | 0.00 | 0.00 | 45 | 1010.8 |
| 20260506014017 | 22 | 128 | 1.6 | 8.0 | 0.00 | 0.00 | 0.00 | 44 | 1010.7 |
| 20260506013739 | 22 | 229 | 1.6 | 8.0 | 0.00 | 0.00 | 0.00 | 43 | 1010.7 |
| 20260506013005 | 22 | 111 | 1.6 | 4.8 | 0.00 | 0.00 | 0.00 | 43 | 1010.7 |
| 20260506012739 | 23 | 90 | 1.6 | 4.8 | 0.00 | 0.00 | 0.00 | 42 | 1010.5 |
| 20260506012004 | 23 | 128 | 1.6 | 3.2 | 0.00 | 0.00 | 0.00 | 42 | 1010.5 |
| 20260506011504 | 23 | 195 | 1.6 | 9.7 | 0.00 | 0.00 | 0.00 | 42 | 1010.5 |
| 20260506011004 | 23 | 250 | 1.6 | 9.7 | 0.00 | 0.00 | 0.00 | 41 | 1010.5 |
| 20260506010945 | 23 | 265 | 1.6 | 6.4 | 0.00 | 0.00 | 0.00 | 41 | 1010.3 |
| 20260506010004 | 23 | 271 | 3.2 | 11.3 | 0.00 | 0.00 | 0.00 | 41 | 1010.3 |
| 20260506005503 | 23 | 154 | 3.2 | 14.5 | 0.00 | 0.00 | 0.00 | 40 | 1010.3 |
| 20260506005003 | 23 | 208 | 1.6 | 14.5 | 0.00 | 0.00 | 0.00 | 40 | 1010.2 |
| 20260506004502 | 23 | 254 | 1.6 | 8.0 | 0.00 | 0.00 | 0.00 | 40 | 1010.1 |
| 20260506004223 | 23 | 156 | 1.6 | 8.0 | 0.00 | 0.00 | 0.00 | 39 | 1010.0 |
| 20260506003502 | 23 | 207 | 1.6 | 6.4 | 0.00 | 0.00 | 0.00 | 39 | 1010.0 |
| 20260506003004 | 24 | 248 | 1.6 | 8.0 | 0.00 | 0.00 | 0.00 | 38 | 1010.0 |
| 20260506002458 | 24 | 221 | 1.6 | 8.0 | 0.00 | 0.00 | 0.00 | 38 | 1009.9 |
| 20260506002437 | 24 | 127 | 1.6 | 12.9 | 0.00 | 0.00 | 0.00 | 37 | 1010.0 |
| 20260506001458 | 24 | 84 | 1.6 | 12.9 | 0.00 | 0.00 | 0.00 | 37 | 1009.9 |
| 20260506000958 | 24 | 137 | 1.6 | 6.4 | 0.00 | 0.00 | 0.00 | 37 | 1009.8 |
| 20260506000459 | 25 | 174 | 1.6 | 6.4 | 0.00 | 0.00 | 0.00 | 37 | 1009.7 |
| 20260505235958 | 25 | 167 | 1.6 | 6.4 | 0.00 | 0.00 | 0.00 | 36 | 1009.7 |
| 20260505235500 | 25 | 227 | 1.6 | 11.3 | 0.00 | 0.00 | 0.00 | 36 | 1009.7 |
| 20260505235000 | 25 | 243 | 3.2 | 11.3 | 0.00 | 0.00 | 0.00 | 35 | 1009.7 |
| 20260505234727 | 25 | 186 | 1.6 | 9.7 | 0.00 | 0.00 | 0.00 | 34 | 1009.6 |
| 20260505234221 | 25 | 251 | 1.6 | 8.0 | 0.00 | 0.00 | 0.00 | 35 | 1009.6 |
| 20260505233457 | 25 | 249 | 1.6 | 8.0 | 0.00 | 0.00 | 0.00 | 33 | 1009.6 |
| 20260505233451 | 26 | 17 | 1.6 | 8.0 | 0.00 | 0.00 | 0.00 | 33 | 1009.6 |
| 20260505232715 | 26 | 173 | 3.2 | 12.9 | 0.00 | 0.00 | 0.00 | 32 | 1009.6 |
| 20260505231958 | 26 | 176 | 4.8 | 12.9 | 0.00 | 0.00 | 0.00 | 31 | 1009.6 |
| 20260505231949 | 26 | 231 | 4.8 | 12.9 | 0.00 | 0.00 | 0.00 | 31 | 1009.7 |
| 20260505231000 | 26 | 174 | 3.2 | 12.9 | 0.00 | 0.00 | 0.00 | 31 | 1009.7 |
| 20260505230458 | 26 | 241 | 3.2 | 14.5 | 0.00 | 0.00 | 0.00 | 30 | 1009.6 |
| 20260505225959 | 26 | 249 | 4.8 | 14.5 | 0.00 | 0.00 | 0.00 | 30 | 1009.6 |
| 20260505225451 | 26 | 317 | 4.8 | 16.1 | 0.00 | 0.00 | 0.00 | 29 | 1009.7 |
| 20260505224944 | 26 | 254 | 4.8 | 24.1 | 0.00 | 0.00 | 0.00 | 28 | 1009.7 |
| 20260505224440 | 26 | 259 | 6.4 | 24.1 | 0.00 | 0.00 | 0.00 | 27 | 1009.7 |
| 20260505223934 | 26 | 183 | 4.8 | 22.5 | 0.00 | 0.00 | 0.00 | 28 | 1009.7 |
| 20260505223427 | 26 | 180 | 4.8 | 22.5 | 0.00 | 0.00 | 0.00 | 29 | 1009.7 |
| 20260505222922 | 26 | 167 | 3.2 | 12.9 | 0.00 | 0.00 | 0.00 | 32 | 1009.5 |
| 20260505222650 | 26 | 202 | 3.2 | 14.5 | 0.00 | 0.00 | 0.00 | 31 | 1009.5 |
| 20260505221909 | 26 | 300 | 3.2 | 14.5 | 0.00 | 0.00 | 0.00 | 31 | 1009.6 |
| 20260505221403 | 26 | 196 | 3.2 | 14.5 | 0.00 | 0.00 | 0.00 | 30 | 1009.5 |
| 20260505220900 | 26 | 298 | 3.2 | 14.5 | 0.00 | 0.00 | 0.00 | 31 | 1009.7 |
| 20260505220400 | 26 | 237 | 4.8 | 16.1 | 0.00 | 0.00 | 0.00 | 29 | 1009.6 |
| 20260505215859 | 26 | 127 | 6.4 | 16.1 | 0.00 | 0.00 | 0.00 | 29 | 1009.5 |
| 20260505215358 | 26 | 98 | 4.8 | 16.1 | 0.00 | 0.00 | 0.00 | 29 | 1009.4 |
| 20260505214900 | 26 | 196 | 6.4 | 22.5 | 0.00 | 0.00 | 0.00 | 29 | 1009.6 |
| 20260505214359 | 26 | 271 | 6.4 | 22.5 | 0.00 | 0.00 | 0.00 | 29 | 1009.5 |
| 20260505213858 | 26 | 266 | 4.8 | 25.7 | 0.00 | 0.00 | 0.00 | 28 | 1009.5 |
| 20260505213359 | 26 | 274 | 6.4 | 25.7 | 0.00 | 0.00 | 0.00 | 28 | 1009.5 |
| 20260505212859 | 27 | 333 | 6.4 | 19.3 | 0.00 | 0.00 | 0.00 | 28 | 1009.5 |
| 20260505212356 | 27 | 288 | 6.4 | 24.1 | 0.00 | 0.00 | 0.00 | 27 | 1009.4 |
| 20260505211857 | 27 | 205 | 6.4 | 27.4 | 0.00 | 0.00 | 0.00 | 28 | 1009.3 |
| 20260505211353 | 27 | 263 | 6.4 | 27.4 | 0.00 | 0.00 | 0.00 | 27 | 1009.4 |
| 20260505210853 | 27 | 153 | 6.4 | 16.1 | 0.00 | 0.00 | 0.00 | 29 | 1009.3 |
| 20260505210355 | 27 | 92 | 6.4 | 17.7 | 0.00 | 0.00 | 0.00 | 28 | 1009.4 |
| 20260505205854 | 27 | 261 | 4.8 | 17.7 | 0.00 | 0.00 | 0.00 | 29 | 1009.3 |
| 20260505205355 | 27 | 196 | 4.8 | 24.1 | 0.00 | 0.00 | 0.00 | 29 | 1009.4 |
| 20260505204854 | 27 | 216 | 6.4 | 24.1 | 0.00 | 0.00 | 0.00 | 28 | 1009.3 |
| 20260505204615 | 27 | 298 | 6.4 | 25.7 | 0.00 | 0.00 | 0.00 | 29 | 1009.4 |
| 20260505204107 | 28 | 154 | 4.8 | 25.7 | 0.00 | 0.00 | 0.00 | 29 | 1009.4 |
| 20260505203336 | 28 | 213 | 6.4 | 25.7 | 0.00 | 0.00 | 0.00 | 30 | 1009.4 |
| 20260505202830 | 28 | 286 | 6.4 | 25.7 | 0.00 | 0.00 | 0.00 | 29 | 1009.4 |